[[{"header":{"parameterUnit":"m.s-1","parameterCategory":1,"la1":30.2991,"la2":30.254,"lo1":-89.0895,"lo2":-89.0444,"dy":0.0017,"dx":0.0017,"nx":28,"ny":28,"refTime":"2025-01-06T03:00:00:Z","depth":0,"parameterNumber":2,"parameterNumberName":"U-component_of_WINDS"},"data":[0,0,0,0,0,0,0,0,0,0,0,0,0,0,0,0,0,0,0,0,0,0,0,0,0,0,0,0,0,0,0,0,0,0,0,0,0,0,0,0,0,0,0,0,0,0,0,0,0,0,0,0,0,0,0,0,0,0,0.2966,0.2966,0,0.2945,0.2944,0.2944,0.2944,0.2945,0.2945,0.2945,0.2921,0.2921,0.292,0,0,0,0,0,0,0,0,0,0,0,0,0,0.3008,0.3007,0.2966,0.2966,0.2966,0.2945,0.2944,0.2944,0.2944,0.2945,0.2945,0.2946,0.2922,0.2921,0.292,0,0,0,0,0,0,0,0,0,0,0,0,0,0.2989,0.3007,0.2966,0.2964,0.2963,0.2945,0.2944,0.2944,0.2944,0.2945,0.2945,0.2946,0.2922,0.2921,0.2919,0.2902,0,0,0.2915,0.2915,0,0,0,0,0,0,0,0,0.299,0.2987,0.2964,0.2964,0.2963,0.2948,0.295,0.293,0.2944,0.2951,0.2945,0.2946,0.293,0.2928,0.2923,0.2901,0.29,0.2915,0.2914,0.2914,0.2913,0,0,0,0,0,0,0,0.2991,0.2988,0.2958,0.2964,0.2963,0.2963,0.2961,0.2946,0.2938,0.2951,0.2951,0.2948,0.2929,0.2924,0.2922,0.2899,0.2915,0.2914,0.2913,0.2912,0.2863,0.2863,0,0,0,0,0,0,0.2993,0.2989,0.2958,0.2957,0.2978,0.2962,0.296,0.2952,0.2938,0.2937,0.2948,0.2948,0.2926,0.2924,0.2921,0.29,0.2914,0.2912,0.2912,0.2863,0.2863,0.2862,0,0,0,0,0,0,0.2994,0.299,0.2959,0.2973,0.2969,0.2961,0.2953,0.2952,0.2946,0.2936,0.2935,0.2944,0.2926,0.2923,0.2907,0.2899,0.2912,0.291,0.2864,0.2863,0.2863,0.2858,0,0,0,0,0,0,0.2995,0.2991,0.2984,0.2973,0.2968,0.2945,0.2952,0.2951,0.2944,0.2944,0.2932,0.293,0.2926,0.2909,0.2906,0.2898,0.2909,0.2865,0.2864,0.2863,0.2858,0.2857,0.2855,0,0,0,0,0,0.2997,0.2983,0.2984,0.298,0.296,0.2945,0.2942,0.2939,0.2943,0.2936,0.293,0.2931,0.2901,0.2907,0.2903,0.2895,0.2865,0.2864,0.2863,0.2859,0.2857,0.2855,0,0,0,0,0,0,0.2992,0.2981,0.2982,0.2964,0.2956,0.2945,0.2936,0.2937,0.2926,0.2927,0.2922,0.292,0.2903,0.2898,0.2905,0.2878,0.2884,0.2882,0.2882,0.288,0.2879,0.288,0.2908,0,0,0,0,0,0.2989,0.2979,0.297,0.2955,0.2951,0.2944,0.2938,0.2936,0.2926,0.2923,0.2915,0.2906,0.2895,0.2887,0.2876,0.2858,0.2855,0.285,0.2849,0.2848,0.2846,0.2836,0.2834,0.2859,0.2859,0.2859,0,0,0.2983,0.2976,0.2969,0.2954,0.2947,0.2936,0.2941,0.2929,0.292,0.2921,0.2905,0.29,0.2889,0.2872,0.2864,0.2867,0.2839,0.2846,0.2845,0.2844,0.2835,0.2833,0.2831,0.2858,0.2858,0.2858,0,0,0.2965,0.2959,0.2946,0.294,0.2929,0.2926,0.2923,0.2912,0.2909,0.2894,0.2894,0.2884,0.2864,0.2857,0.2851,0.2832,0.2832,0.2829,0.2821,0.2811,0.281,0.2808,0.2801,0.2799,0.2827,0.2827,0.2827,0,0.2958,0.2942,0.2939,0.2927,0.2921,0.2922,0.2909,0.2902,0.2889,0.2884,0.2888,0.2864,0.2857,0.2838,0.2834,0.2829,0.2825,0.283,0.281,0.2808,0.2807,0.28,0.2798,0.2827,0.2827,0.2827,0.2827,0,0.2934,0.2922,0.2913,0.2901,0.2894,0.2881,0.2877,0.287,0.2869,0.2865,0.285,0.2842,0.2829,0.2825,0.2824,0.2807,0.2809,0.2811,0.2817,0.2804,0.2798,0.2796,0.2826,0.2826,0.2826,0.2827,0,0,0.2911,0.2899,0.2896,0.2891,0.2881,0.2872,0.286,0.2849,0.2843,0.2834,0.2824,0.2808,0.2811,0.2803,0.2801,0.2794,0.278,0.2797,0.2797,0.2794,0.2761,0.2759,0.2756,0.278,0.278,0.278,0.2762,0,0.2893,0.2872,0.287,0.2851,0.284,0.2842,0.2832,0.2824,0.282,0.2811,0.2807,0.2796,0.28,0.2796,0.2788,0.2783,0.2773,0.2785,0.2771,0.277,0.2773,0.2753,0.275,0.2734,0.276,0.2759,0.2759,0,0.2867,0.2859,0.2839,0.2831,0.2827,0.2818,0.2808,0.2799,0.2791,0.2789,0.2782,0.2781,0.2769,0.2776,0.2759,0.2767,0.2762,0.2758,0.2758,0.2756,0.2763,0.275,0.2729,0.2726,0.2755,0.2755,0.2756,0,0.2853,0.2837,0.2823,0.2819,0.2809,0.2803,0.2798,0.2791,0.2785,0.2776,0.2772,0.2762,0.2756,0.2748,0.2745,0.2751,0.2729,0.2735,0.2727,0.2727,0.2721,0.2721,0.2698,0.2718,0.2718,0.2718,0.2718,0,0.2832,0.282,0.2816,0.2808,0.2794,0.2793,0.278,0.2776,0.2769,0.276,0.2761,0.2752,0.2749,0.274,0.2737,0.2724,0.2721,0.2719,0.2719,0.2719,0.2719,0.2715,0.2715,0.2718,0.2718,0.2718,0.2718,0,0.2813,0.281,0.2795,0.2788,0.2786,0.2777,0.277,0.2762,0.276,0.2748,0.2745,0.274,0.273,0.2726,0.2713,0.2712,0.2696,0.2697,0.2699,0.2699,0.269,0.2691,0.2663,0.2659,0.2682,0.2682,0.2682,0,0.2799,0.279,0.2782,0.2777,0.2772,0.2763,0.2757,0.2755,0.2749,0.274,0.2733,0.2723,0.2714,0.2697,0.2693,0.2683,0.2683,0.2674,0.2681,0.2682,0.2683,0.2683,0.2682,0.2672,0.2672,0.2672,0.2672,0,0.2775,0.2775,0.2766,0.2758,0.2751,0.2743,0.2737,0.2732,0.2729,0.2722,0.2712,0.2705,0.2693,0.2683,0.2673,0.2669,0.267,0.267,0.2667,0.2667,0.2668,0.2667,0.2695,0.267,0.267,0.267,0.267,0.267,0.2758,0.2751,0.2744,0.2735,0.273,0.2724,0.2716,0.2713,0.2704,0.2694,0.2694,0.2683,0.2676,0.2664,0.2659,0.265,0.2653,0.2649,0.2648,0.2647,0.2646,0.267,0.2649,0.2649,0.2649,0.2649,0.2649,0,0.2734,0.2731,0.2722,0.2713,0.2706,0.2709,0.2702,0.2696,0.2686,0.268,0.2672,0.2661,0.2651,0.2646,0.2637,0.2631,0.2631,0.2629,0.2629,0.2628,0.2645,0.2648,0.2629,0.2629,0.2629,0.2629,0.2629,0.2629,0.2721,0.2708,0.2707,0.2692,0.2689,0.2678,0.2674,0.2668,0.2664,0.2651,0.2644,0.2641,0.2635,0.2626,0.2618,0.2617,0.2613,0.261,0.2609,0.2624,0.2626,0.2628,0.2631,0.2609,0.2609,0.2593,0.2593,0.2593]},{"header":{"parameterUnit":"m.s-1","parameterCategory":1,"la1":30.2991,"la2":30.254,"lo1":-89.0895,"lo2":-89.0444,"dy":0.0017,"dx":0.0017,"nx":28,"ny":28,"refTime":"2025-01-06T03:00:00:Z","depth":0,"parameterNumber":3,"parameterNumberName":"V-component_of_WINDS"},"data":[0,0,0,0,0,0,0,0,0,0,0,0,0,0,0,0,0,0,0,0,0,0,0,0,0,0,0,0,0,0,0,0,0,0,0,0,0,0,0,0,0,0,0,0,0,0,0,0,0,0,0,0,0,0,0,0,0,0,-6.1464,-6.1466,0,-6.159,-6.1591,-6.1592,-6.1522,-6.1518,-6.1515,-6.1512,-6.1635,-6.1641,-6.1648,0,0,0,0,0,0,0,0,0,0,0,0,0,-6.1158,-6.1164,-6.1464,-6.1466,-6.1467,-6.1589,-6.1591,-6.1593,-6.1523,-6.1518,-6.1514,-6.151,-6.1633,-6.164,-6.1648,0,0,0,0,0,0,0,0,0,0,0,0,0,-6.1288,-6.1166,-6.1464,-6.1447,-6.1447,-6.1589,-6.1591,-6.1593,-6.1523,-6.1518,-6.1513,-6.1508,-6.163,-6.164,-6.1649,-6.1814,0,0,-6.1679,-6.1683,0,0,0,0,0,0,0,0,-6.1281,-6.1299,-6.1448,-6.1449,-6.1448,-6.1535,-6.1528,-6.1667,-6.1525,-6.1494,-6.1512,-6.1506,-6.1606,-6.1617,-6.1652,-6.1819,-6.1825,-6.168,-6.1686,-6.169,-6.1693,0,0,0,0,0,0,0,-6.1272,-6.1294,-6.1514,-6.145,-6.1451,-6.1431,-6.1444,-6.1554,-6.1577,-6.1496,-6.1492,-6.1508,-6.1605,-6.1643,-6.1654,-6.1827,-6.168,-6.1688,-6.1694,-6.1698,-6.2134,-6.2139,0,0,0,0,0,0,-6.1265,-6.1287,-6.151,-6.1517,-6.135,-6.1441,-6.1455,-6.1512,-6.1576,-6.1581,-6.1512,-6.1504,-6.1628,-6.1643,-6.1658,-6.1854,-6.169,-6.1699,-6.1705,-6.2128,-6.2135,-6.2141,0,0,0,0,0,0,-6.1259,-6.1285,-6.1505,-6.1401,-6.1427,-6.1452,-6.1517,-6.1518,-6.1555,-6.1588,-6.1591,-6.1547,-6.1625,-6.1644,-6.1776,-6.1857,-6.1704,-6.1713,-6.2121,-6.213,-6.2138,-6.2247,0,0,0,0,0,0,-6.125,-6.1284,-6.1348,-6.1403,-6.1433,-6.1622,-6.1522,-6.1524,-6.1573,-6.1564,-6.1621,-6.1626,-6.1622,-6.1761,-6.1785,-6.1868,-6.172,-6.2114,-6.2125,-6.2135,-6.2236,-6.2258,-6.2277,0,0,0,0,0,-6.1239,-6.1373,-6.1351,-6.1379,-6.1514,-6.1627,-6.1644,-6.1639,-6.158,-6.1644,-6.1664,-6.1624,-6.1845,-6.1775,-6.1802,-6.1888,-6.2109,-6.2122,-6.2134,-6.2227,-6.2254,-6.2277,0,0,0,0,0,0,-6.1325,-6.1379,-6.1356,-6.1512,-6.1566,-6.1615,-6.1695,-6.1667,-6.1737,-6.1725,-6.1714,-6.1728,-6.1864,-6.1889,-6.1811,-6.205,-6.1967,-6.1986,-6.2029,-6.2054,-6.2075,-6.2065,-6.1728,0,0,0,0,0,-6.1362,-6.1451,-6.1493,-6.1626,-6.1654,-6.167,-6.1719,-6.171,-6.1765,-6.1786,-6.1817,-6.1869,-6.195,-6.2004,-6.208,-6.224,-6.225,-6.2312,-6.2332,-6.2349,-6.2365,-6.245,-6.2477,-6.2183,-6.2183,-6.2183,0,0,-6.1439,-6.148,-6.1536,-6.1644,-6.1684,-6.1775,-6.169,-6.1789,-6.1855,-6.1801,-6.1927,-6.1951,-6.2009,-6.2155,-6.222,-6.218,-6.2449,-6.2366,-6.2379,-6.2386,-6.2466,-6.2494,-6.2519,-6.2192,-6.219,-6.2189,0,0,-6.1625,-6.1666,-6.1781,-6.1823,-6.1886,-6.1896,-6.1924,-6.1978,-6.1992,-6.2119,-6.2079,-6.2157,-6.2297,-6.234,-6.238,-6.2583,-6.2548,-6.2608,-6.2714,-6.2797,-6.282,-6.284,-6.2911,-6.2937,-6.2623,-6.2624,-6.2624,0,-6.1712,-6.1849,-6.1842,-6.1945,-6.1993,-6.195,-6.2065,-6.2106,-6.219,-6.2223,-6.2177,-6.2351,-6.2387,-6.2542,-6.2592,-6.2626,-6.2655,-6.2601,-6.2817,-6.2838,-6.2857,-6.2924,-6.2951,-6.2631,-6.263,-6.2629,-6.2628,0,-6.1952,-6.2048,-6.2132,-6.2216,-6.2274,-6.2382,-6.239,-6.2449,-6.2435,-6.2449,-6.2578,-6.262,-6.2703,-6.2739,-6.2727,-6.2892,-6.2865,-6.2819,-6.2735,-6.2892,-6.2955,-6.2981,-6.264,-6.2638,-6.2636,-6.2634,0,0,-6.2195,-6.2275,-6.2306,-6.2343,-6.241,-6.2482,-6.2588,-6.2671,-6.2721,-6.278,-6.2867,-6.2987,-6.2944,-6.299,-6.2981,-6.3054,-6.321,-6.2998,-6.2999,-6.3035,-6.3394,-6.3428,-6.3458,-6.3188,-6.3193,-6.3197,-6.3389,0,-6.2385,-6.2572,-6.2569,-6.2741,-6.2828,-6.2788,-6.288,-6.2929,-6.2945,-6.302,-6.3036,-6.3121,-6.3059,-6.3086,-6.3157,-6.3177,-6.3282,-6.3163,-6.3267,-6.3271,-6.3253,-6.3491,-6.3527,-6.3706,-6.3413,-6.3418,-6.3421,0,-6.2632,-6.2701,-6.2882,-6.2935,-6.2972,-6.3054,-6.313,-6.3203,-6.3257,-6.3263,-6.3315,-6.3295,-6.34,-6.3314,-6.3458,-6.3377,-6.3419,-6.3435,-6.3442,-6.345,-6.3354,-6.3505,-6.3764,-6.379,-6.346,-6.3456,-6.3454,0,-6.279,-6.2928,-6.3054,-6.3087,-6.3152,-6.3211,-6.3241,-6.3291,-6.3341,-6.3406,-6.3438,-6.3515,-6.3557,-6.3616,-6.3616,-6.3554,-6.3761,-6.3675,-6.3767,-6.3767,-6.3812,-6.3809,-6.408,-6.3841,-6.3841,-6.384,-6.384,0,-6.3001,-6.3114,-6.3126,-6.3203,-6.3327,-6.3322,-6.3444,-6.3468,-6.3513,-6.3592,-6.3562,-6.3637,-6.3634,-6.3709,-6.371,-6.3828,-6.3847,-6.3854,-6.3852,-6.3856,-6.3855,-6.3883,-6.387,-6.3847,-6.3846,-6.3845,-6.3843,0,-6.3198,-6.3211,-6.3346,-6.3397,-6.3412,-6.3501,-6.3544,-6.3617,-6.363,-6.3732,-6.3755,-6.3775,-6.3863,-6.3869,-6.397,-6.397,-6.4113,-6.4099,-6.4096,-6.4093,-6.4184,-6.4175,-6.4481,-6.452,-6.4257,-6.426,-6.4262,0,-6.3332,-6.3418,-6.3478,-6.3531,-6.3564,-6.3648,-6.37,-6.3698,-6.3752,-6.3821,-6.3885,-6.397,-6.4037,-6.4179,-6.4201,-6.4278,-6.4264,-6.4367,-6.4276,-6.4276,-6.4264,-6.4259,-6.4267,-6.4384,-6.4387,-6.4389,-6.4391,0,-6.3568,-6.357,-6.3646,-6.3725,-6.3788,-6.3849,-6.3906,-6.395,-6.3954,-6.4017,-6.4107,-6.416,-6.4263,-6.4347,-6.4423,-6.445,-6.4421,-6.442,-6.4445,-6.4449,-6.4443,-6.4446,-6.4143,-6.4412,-6.441,-6.4409,-6.4407,-6.4407,-6.3736,-6.381,-6.3865,-6.395,-6.3993,-6.4048,-6.4118,-6.4141,-6.4217,-6.4302,-6.4296,-6.4395,-6.4446,-6.4544,-6.4578,-6.4654,-6.462,-6.4656,-6.4665,-6.4674,-6.4683,-6.4432,-6.4668,-6.4667,-6.4667,-6.4666,-6.4666,0,-6.397,-6.4003,-6.4082,-6.4163,-6.423,-6.4199,-6.4261,-6.4318,-6.4407,-6.4458,-6.4525,-6.4628,-6.471,-6.4739,-6.4818,-6.4873,-6.4862,-6.4894,-6.4889,-6.4896,-6.471,-6.468,-6.4902,-6.4902,-6.4902,-6.4902,-6.4902,-6.4901,-6.4099,-6.4222,-6.423,-6.4374,-6.4405,-6.4504,-6.4542,-6.4591,-6.4632,-6.4749,-6.4817,-6.4836,-6.4878,-6.4959,-6.5032,-6.5038,-6.5068,-6.5106,-6.5106,-6.4933,-6.4909,-6.4886,-6.4858,-6.5113,-6.5113,-6.5285,-6.5287,-6.5288]}]]